DMSP 5D-3 F16 (USA 172)

Last updated on Tue Sep 22 2026 00:02:53 GMT+0000 (Coordinated Universal Time)

1 28054U 03048A 26264.59792356 .00000013 00000+0 30484-4 0 9996 2 28054 98.9860 289.0492 0006215 228.3286 292.8720 14.14491349183114
UTC large
Height (km)
Speed (km/s)
/
Latitude / Longitude
Inclination (degrees)
Orbital Period (minutes)
Azimuth
Elevation
Range (km)
Doppler Factor

Next 0 passes for location: London (51.5072 / 0.1276)

No passes found over London.
DMSP 5D-3 F16 (USA 172)